Voltar ao catálogo

STARLINK-5833

AtivoComunicaçõesVLEO
NORAD 55773·PAYLOAD·🇺🇸 United States

Lançado Mar 3, 2023 de Vandenberg Space Force Base

Loading…

Próximas Passagens (próximas 24 horas)

TLE

AtualizadoSource: CelesTrak SupGP

Época: Sep 14, 2026, 21:57 UTC

1 55773C 23028AJ  26257.91506944 -.00037178  00000+0 -31141-2 0  2578
2 55773  70.0001 107.4338 0003103 272.2031 143.9976 14.98368218    17

Acompanhe STARLINK-5833 em tempo real com AllMySat

Download on the App Store